Location: Boiro
(42.6475°N, 8.8834°W)
Time: 09:43:51
(UTC+01:00)

Transit 4A - Pass Details

Date: 01 October 2023
Orbit: 864 x 979 km, 66.8° (Epoch: 02 December)

Event Time Altitude Azimuth Distance (km) Brightness Sun altitude
Rises 23:18:30 0° 321° (NW) 3,664 11.9 -32.9°
Reaches altitude 10° 23:21:19 10° 312° (NW) 2,700 11.1 -33.4°
Maximum altitude 23:26:50 33° 251° (WSW) 1,537 9.2 -34.2°
Enters shadow 23:27:30 32° 238° (WSW) 1,558 9.2 -34.3°
